Погода в Генке

Бельгия     50°58′00″N   5°30′07″E
темп.,
°C
ветер,
м/с
пор.,
м/с
влажн.,
%
обл.,
%
осадки,
мм/ч
давл.,
гПа
погр.,
м
29 июня, ср
ср2923:00+17в34600 0.0 101775
02:00+16ююв22670 0.0 101634
05:00+15ююв22735 0.0 101516
08:00+19юз23571 0.0 1015182
11:00+25юз23439 0.0 10141254
14:00+25ююв2348100 0.0 1013840
17:00+25ююв344438 0.0 1013841
20:00+26ююв234571 0.0 1011171
30 июня, чт
чт3023:00+19зюз35564 0.0 101283
02:00+16ююз22649 0.0 101339
05:00+15юз23740 0.0 101260
08:00+19зюз236029 0.0 1012187
11:00+26вюв223859 0.0 10111018
14:00+30ююз143263 0.0 10092462
17:00+20з91175100 0.4 1011703
20:00+15з4889100 1.3 1013560
1 июля, пт
пт123:00+14зюз5993100 0.3 1014516
02:00+13ююз41094100 1.4 1015487
05:00+12юз41096100 0.0 1016490
08:00+13юз598713 0.0 1018525
11:00+18зюз67490 0.0 10181469
14:00+22зюз683616 0.0 10182251
17:00+19з574726 0.0 10191179
20:00+19зюз474759 0.0 10201427
2 июля, сб
сб223:00+14ююз37660 0.0 1022127
02:00+12ююз24750 0.0 102281
05:00+11ююз23795 0.0 102365
08:00+16ююз24600 0.0 1023227
11:00+22ююз34380 0.0 10221554
14:00+25ююз35304 0.0 10212270
17:00+27ююз45280 0.0 10192471
20:00+25ююз25375 0.0 1018388
3 июля, вс
вс323:00+18з235519 0.0 101943
02:00+15зюз23661 0.0 101955
05:00+13зюз22770 0.0 101923
08:00+17зюз236178 0.0 1020240
11:00+22зюз34445 0.0 1019994
14:00+26з463424 0.0 10192115
17:00+27з57330 0.0 10182404
20:00+23сз57464 0.0 1018699